ネオワイズ彗星

P/2014 L2 ( NEOWISE )

English version
Home page
Updated on June 11, 2016

---------------------------------------------------------------------

・ プロフィール

発見日 2014年6月7日
発見光度 19等
発見者 Near-Earth Object Wide-field Infrared Survey Explorer (NEOWISE)

・ 写真集

・ 軌道要素

Epoch 2014 July 2.0 TT = JDT 2456840.5
T 2014 July 15.42153 TT                                 MPCW
q   2.2345411            (2000.0)            P               Q
n   0.06193211     Peri.  182.77953     +0.88435995     +0.46453469
a   6.3269171      Node   149.40572     -0.42652392     +0.84415091
e   0.6468199      Incl.    5.18432     -0.18969667     +0.26761308
P  15.9
From 1067 observations 2014 June 7-2015 Jan. 19, mean residual 0".5.

・ 星図

・ 光度変化

        m1 = 6.5 + 5 logΔ + 20.0 log r

---------------------------------------------------------------------

軌道要素はM.P.E.C. 2016-D32に掲載されたものです。
星図はステラナビゲータ Ver.8 (アストロアーツ) で作成したものです。
光度グラフはComet for Windowsで作成したものです。

---------------------------------------------------------------------

Copyright(C) Seiichi Yoshida (comet@aerith.net). All rights reserved.